* Astronomy

Members Login
Username 
 
Password 
    Remember Me  
Post Info TOPIC: Asteroid 2012 AD3


L

Posts: 131433
Date:
Asteroid 2012 AD3
Permalink  
 


Orbital elements:
2012 AD3                                            PHA, Earth MOID = 0.0283 AU
Epoch 2012 Mar. 14.0 TT = JDT 2456000.5                 MPC
M  55.92084              (2000.0)            P               Q
n   0.30222733     Peri.  215.59544     +0.99546654     -0.08166524
a   2.1991097      Node   148.98080     +0.09305437     +0.94229164
e   0.6092676      Incl.    5.42901     -0.01967887     +0.32468025
P   3.26           H   19.5           G   0.15           U   8

MPEC 2012 - A31



__________________
Page 1 of 1  sorted by
 
Quick Reply

Please log in to post quick replies.



Create your own FREE Forum
Report Abuse
Powered by ActiveBoard